Find OPS 2222

NORAD ID: 3334 Int'l Des: 1968-063 Owner: NRO/SAFSP Country: US operational
HEO

現在のビュー

3D地球を読み込み中...

About OPS 2222

OPS 2222 (NORAD 3334) is a satellite by NRO/SAFSP of US. It operates in HEO orbit

次回通過

Passes for default location (London). Set your location on the main map for personalized predictions.

高度履歴

Loading altitude history...

軌道要素

1 03334U 68063A 26194.59632672 -.00000340 00000-0 00000-0 0 9996
2 03334 5.8501 281.7013 0898756 232.9602 138.1461 0.99256328 26391
Epoch: Jul 13, 2026 • Age: 14 hours

現在のステータス

高度 32445.8 km
遠地点 / 近地点 N/A
速度 3.34 km/s
衛星直下点 -3.16°S, 141.18°E
タイプ other

Most Searched